Time,TemperatureF,DewpointF,PressureIn,WindDirection,WindDirectionDegrees,WindSpeedMPH,WindSpeedGustMPH,Humidity,HourlyPrecipIn,Conditions,Clouds,dailyrainin,SoftwareType,DateUTC
2013-02-09 00:11:00,22.3,20.0,32.50,NNW,331,4.0,10.0,91,0.00,,,0.00,weatherlink.com 1.10,2013-02-09 07:11:00,
2013-02-09 00:26:00,22.0,20.0,32.50,NNW,340,7.0,12.0,90,0.00,,,0.00,weatherlink.com 1.10,2013-02-09 07:26:00,
2013-02-09 00:41:00,21.7,19.0,32.50,NNW,346,9.0,13.0,89,0.00,,,0.00,weatherlink.com 1.10,2013-02-09 07:41:00,
2013-02-09 00:56:00,21.7,19.0,32.50,North,360,7.0,12.0,88,0.00,,,0.00,weatherlink.com 1.10,2013-02-09 07:56:00,
2013-02-09 01:11:00,21.6,19.0,32.50,North,5,7.0,8.0,88,0.00,,,0.00,weatherlink.com 1.10,2013-02-09 08:11:00,
2013-02-09 01:26:00,21.5,18.0,32.50,North,349,10.0,11.0,86,0.00,,,0.00,weatherlink.com 1.10,2013-02-09 08:26:00,
2013-02-09 01:41:00,21.3,18.0,32.50,North,355,7.0,12.0,85,0.00,,,0.00,weatherlink.com 1.10,2013-02-09 08:41:00,
2013-02-09 01:56:00,21.0,17.0,32.50,North,5,6.0,12.0,85,0.00,,,0.00,weatherlink.com 1.10,2013-02-09 08:56:00,
2013-02-09 02:11:00,20.9,17.0,32.50,NW,322,6.0,13.0,84,0.00,,,0.00,weatherlink.com 1.10,2013-02-09 09:11:00,
2013-02-09 02:26:00,20.7,16.0,32.50,NNW,337,8.0,14.0,83,0.00,,,0.00,weatherlink.com 1.10,2013-02-09 09:26:00,
2013-02-09 02:41:00,20.7,16.0,32.50,NW,321,8.0,13.0,83,0.00,,,0.00,weatherlink.com 1.10,2013-02-09 09:41:00,
2013-02-09 02:56:00,20.4,16.0,32.50,NW,325,8.0,12.0,83,0.00,,,0.00,weatherlink.com 1.10,2013-02-09 09:56:00,
2013-02-09 03:11:00,20.3,16.0,32.50,NNW,336,7.0,11.0,83,0.00,,,0.00,weatherlink.com 1.10,2013-02-09 10:11:00,
2013-02-09 03:27:00,20.1,16.0,32.50,NW,323,7.0,10.0,84,0.00,,,0.00,weatherlink.com 1.10,2013-02-09 10:27:00,
2013-02-09 03:42:00,20.0,16.0,32.50,NNW,327,7.0,10.0,84,0.00,,,0.00,weatherlink.com 1.10,2013-02-09 10:42:00,
2013-02-09 03:57:00,20.1,17.0,32.50,NW,308,6.0,8.0,86,0.00,,,0.00,weatherlink.com 1.10,2013-02-09 10:57:00,
2013-02-09 04:12:00,20.2,17.0,32.50,NW,323,6.0,11.0,86,0.00,,,0.00,weatherlink.com 1.10,2013-02-09 11:12:00,
2013-02-09 04:27:00,20.2,17.0,32.50,WNW,300,7.0,11.0,87,0.00,,,0.00,weatherlink.com 1.10,2013-02-09 11:27:00,
2013-02-09 04:42:00,20.1,16.0,32.50,NW,305,4.0,13.0,85,0.00,,,0.00,weatherlink.com 1.10,2013-02-09 11:42:00,
2013-02-09 04:57:00,20.0,17.0,32.50,NW,319,8.0,10.0,86,0.00,,,0.00,weatherlink.com 1.10,2013-02-09 11:57:00,
2013-02-09 05:12:00,19.8,16.0,32.50,NW,311,8.0,12.0,85,0.00,,,0.00,weatherlink.com 1.10,2013-02-09 12:12:00,
2013-02-09 05:27:00,19.6,15.0,32.50,NW,325,9.0,14.0,82,0.00,,,0.00,weatherlink.com 1.10,2013-02-09 12:27:00,
2013-02-09 05:42:00,19.4,15.0,32.50,WNW,300,10.0,14.0,83,0.00,,,0.00,weatherlink.com 1.10,2013-02-09 12:42:00,
2013-02-09 05:57:00,19.4,15.0,32.50,WNW,298,9.0,13.0,82,0.00,,,0.00,weatherlink.com 1.10,2013-02-09 12:57:00,
2013-02-09 06:12:00,19.4,14.0,32.50,NW,321,11.0,14.0,80,0.00,,,0.00,weatherlink.com 1.10,2013-02-09 13:12:00,
2013-02-09 06:27:00,19.3,14.0,32.50,WNW,299,8.0,14.0,80,0.00,,,0.00,weatherlink.com 1.10,2013-02-09 13:27:00,
2013-02-09 06:42:00,19.2,14.0,32.50,NW,315,6.0,10.0,81,0.00,,,0.00,weatherlink.com 1.10,2013-02-09 13:42:00,
2013-02-09 06:57:00,19.1,14.0,32.50,NW,311,8.0,11.0,80,0.00,,,0.00,weatherlink.com 1.10,2013-02-09 13:57:00,
2013-02-09 07:12:00,19.0,14.0,32.50,NW,318,6.0,11.0,79,0.00,,,0.00,weatherlink.com 1.10,2013-02-09 14:12:00,
2013-02-09 07:27:00,18.9,13.0,32.50,NW,321,11.0,12.0,78,0.00,,,0.00,weatherlink.com 1.10,2013-02-09 14:27:00,
2013-02-09 07:42:00,19.0,13.0,32.50,NW,304,7.0,13.0,78,0.00,,,0.00,weatherlink.com 1.10,2013-02-09 14:42:00,
2013-02-09 07:57:00,18.7,13.0,32.50,NW,308,14.0,16.0,78,0.00,,,0.00,weatherlink.com 1.10,2013-02-09 14:57:00,
2013-02-09 08:12:00,18.9,13.0,32.50,NW,309,7.0,13.0,78,0.00,,,0.00,weatherlink.com 1.10,2013-02-09 15:12:00,
2013-02-09 08:27:00,19.4,13.0,32.50,WNW,293,8.0,14.0,76,0.00,,,0.00,weatherlink.com 1.10,2013-02-09 15:27:00,
2013-02-09 08:42:00,19.1,13.0,32.50,NW,315,6.0,11.0,78,0.00,,,0.00,weatherlink.com 1.10,2013-02-09 15:42:00,
2013-02-09 08:57:00,19.1,14.0,32.50,NW,313,5.0,8.0,79,0.00,,,0.00,weatherlink.com 1.10,2013-02-09 15:57:00,
2013-02-09 09:12:00,19.1,14.0,32.50,WNW,295,7.0,12.0,79,0.00,,,0.00,weatherlink.com 1.10,2013-02-09 16:12:00,
2013-02-09 09:27:00,19.2,13.0,32.50,WNW,289,7.0,15.0,78,0.00,,,0.00,weatherlink.com 1.10,2013-02-09 16:27:00,
2013-02-09 09:42:00,19.4,14.0,32.50,NNW,333,12.0,12.0,79,0.00,,,0.00,weatherlink.com 1.10,2013-02-09 16:42:00,
2013-02-09 09:57:00,20.4,15.0,32.50,WNW,300,8.0,13.0,78,0.00,,,0.00,weatherlink.com 1.10,2013-02-09 16:57:00,
2013-02-09 10:12:00,20.1,15.0,32.50,NW,306,7.0,19.0,79,0.00,,,0.00,weatherlink.com 1.10,2013-02-09 17:12:00,
2013-02-09 10:27:00,20.2,15.0,32.50,WNW,286,9.0,15.0,79,0.00,,,0.00,weatherlink.com 1.10,2013-02-09 17:27:00,
2013-02-09 10:42:00,20.8,15.0,32.50,WNW,299,11.0,16.0,79,0.00,,,0.00,weatherlink.com 1.10,2013-02-09 17:42:00,
2013-02-09 10:57:00,20.8,15.0,32.50,WNW,284,8.0,13.0,79,0.00,,,0.00,weatherlink.com 1.10,2013-02-09 17:57:00,
2013-02-09 11:12:00,21.1,16.0,32.50,WNW,298,8.0,14.0,79,0.00,,,0.00,weatherlink.com 1.10,2013-02-09 18:12:00,
2013-02-09 11:27:00,21.1,16.0,32.50,NW,314,6.0,16.0,80,0.00,,,0.00,weatherlink.com 1.10,2013-02-09 18:27:00,
2013-02-09 11:42:00,21.0,15.0,32.50,WNW,298,10.0,17.0,79,0.00,,,0.00,weatherlink.com 1.10,2013-02-09 18:42:00,
2013-02-09 11:57:00,21.0,16.0,32.50,West,274,9.0,13.0,80,0.00,,,0.00,weatherlink.com 1.10,2013-02-09 18:57:00,
2013-02-09 12:12:00,21.5,16.0,32.50,WNW,294,3.0,9.0,79,0.00,,,0.00,weatherlink.com 1.10,2013-02-09 19:12:00,
2013-02-09 12:27:00,22.0,16.0,32.50,West,263,3.0,8.0,78,0.00,,,0.00,weatherlink.com 1.10,2013-02-09 19:27:00,
2013-02-09 12:42:00,21.7,16.0,32.50,WNW,292,6.0,9.0,80,0.00,,,0.00,weatherlink.com 1.10,2013-02-09 19:42:00,
2013-02-09 12:57:00,21.6,16.0,32.50,WNW,298,4.0,9.0,80,0.00,,,0.00,weatherlink.com 1.10,2013-02-09 19:57:00,
2013-02-09 13:12:00,21.6,16.0,32.50,WNW,290,8.0,9.0,80,0.00,,,0.00,weatherlink.com 1.10,2013-02-09 20:12:00,
2013-02-09 13:27:00,21.6,17.0,32.50,WNW,285,9.0,11.0,81,0.00,,,0.00,weatherlink.com 1.10,2013-02-09 20:27:00,
2013-02-09 13:42:00,21.7,17.0,32.50,WNW,286,4.0,7.0,81,0.00,,,0.00,weatherlink.com 1.10,2013-02-09 20:42:00,
2013-02-09 13:57:00,21.5,17.0,32.50,NW,316,4.0,11.0,83,0.00,,,0.00,weatherlink.com 1.10,2013-02-09 20:57:00,
2013-02-09 14:12:00,21.2,17.0,32.50,WNW,302,8.0,16.0,85,0.00,,,0.00,weatherlink.com 1.10,2013-02-09 21:12:00,
2013-02-09 14:27:00,21.1,18.0,32.50,WNW,291,10.0,14.0,87,0.00,,,0.00,weatherlink.com 1.10,2013-02-09 21:27:00,
2013-02-09 14:42:00,20.8,18.0,32.50,NW,315,6.0,14.0,88,0.00,,,0.00,weatherlink.com 1.10,2013-02-09 21:42:00,
2013-02-09 14:57:00,20.7,18.0,32.50,WNW,302,7.0,12.0,90,0.00,,,0.00,weatherlink.com 1.10,2013-02-09 21:57:00,
2013-02-09 15:12:00,20.6,18.0,32.50,NW,309,8.0,12.0,91,0.00,,,0.00,weatherlink.com 1.10,2013-02-09 22:12:00,
2013-02-09 15:27:00,20.7,19.0,32.50,WNW,299,13.0,13.0,92,0.00,,,0.00,weatherlink.com 1.10,2013-02-09 22:27:00,
2013-02-09 15:42:00,20.8,19.0,32.50,WNW,294,12.0,19.0,92,0.00,,,0.00,weatherlink.com 1.10,2013-02-09 22:42:00,
2013-02-09 15:57:00,21.0,19.0,32.50,WNW,298,10.0,16.0,92,0.00,,,0.00,weatherlink.com 1.10,2013-02-09 22:57:00,
2013-02-09 16:12:00,21.0,19.0,32.50,NW,312,8.0,17.0,92,0.00,,,0.00,weatherlink.com 1.10,2013-02-09 23:12:00,
2013-02-09 16:27:00,21.0,19.0,32.50,NW,305,8.0,17.0,92,0.00,,,0.00,weatherlink.com 1.10,2013-02-09 23:27:00,
2013-02-09 16:42:00,21.0,19.0,32.50,WNW,293,10.0,17.0,92,0.00,,,0.00,weatherlink.com 1.10,2013-02-09 23:42:00,
2013-02-09 16:57:00,21.0,19.0,32.50,WNW,295,8.0,18.0,92,0.00,,,0.00,weatherlink.com 1.10,2013-02-09 23:57:00,
2013-02-09 17:12:00,21.0,19.0,32.50,NNW,342,8.0,12.0,92,0.00,,,0.00,weatherlink.com 1.10,2013-02-10 00:12:00,
2013-02-09 17:27:00,21.0,19.0,32.50,NW,319,5.0,9.0,92,0.00,,,0.00,weatherlink.com 1.10,2013-02-10 00:27:00,
2013-02-09 17:42:00,-999.0,-99.9,32.50,North,-999,-999.0,-999.0,-999,0.00,,,0.00,weatherlink.com 1.10,2013-02-10 00:42:00,
2013-02-09 17:58:00,20.9,19.0,32.50,NW,318,6.0,11.0,92,0.00,,,0.00,weatherlink.com 1.10,2013-02-10 00:58:00,
2013-02-09 18:13:00,20.9,19.0,32.50,NW,324,12.0,15.0,92,0.00,,,0.00,weatherlink.com 1.10,2013-02-10 01:13:00,
2013-02-09 18:28:00,20.9,19.0,32.50,NNW,329,8.0,13.0,92,0.00,,,0.00,weatherlink.com 1.10,2013-02-10 01:28:00,
2013-02-09 18:43:00,20.9,19.0,32.50,NNW,330,9.0,14.0,92,0.00,,,0.00,weatherlink.com 1.10,2013-02-10 01:43:00,
2013-02-09 18:58:00,20.9,19.0,32.50,NW,325,11.0,14.0,92,0.00,,,0.00,weatherlink.com 1.10,2013-02-10 01:58:00,
2013-02-09 19:13:00,20.9,19.0,32.50,NW,321,8.0,15.0,92,0.00,,,0.00,weatherlink.com 1.10,2013-02-10 02:13:00,
2013-02-09 19:28:00,20.9,19.0,32.50,NNW,330,11.0,17.0,92,0.00,,,0.00,weatherlink.com 1.10,2013-02-10 02:28:00,
2013-02-09 19:43:00,21.0,19.0,32.50,NNW,337,9.0,17.0,92,0.00,,,0.00,weatherlink.com 1.10,2013-02-10 02:43:00,
2013-02-09 19:58:00,21.0,19.0,32.50,NNW,336,10.0,18.0,92,0.00,,,0.00,weatherlink.com 1.10,2013-02-10 02:58:00,
2013-02-09 20:13:00,21.0,19.0,32.50,NW,321,10.0,16.0,92,0.00,,,0.00,weatherlink.com 1.10,2013-02-10 03:13:00,
2013-02-09 20:28:00,20.9,19.0,32.50,NW,320,9.0,14.0,92,0.00,,,0.00,weatherlink.com 1.10,2013-02-10 03:28:00,
2013-02-09 20:43:00,20.9,19.0,32.50,North,351,9.0,14.0,92,0.00,,,0.00,weatherlink.com 1.10,2013-02-10 03:43:00,
2013-02-09 20:58:00,20.9,19.0,32.50,NNW,348,10.0,15.0,92,0.00,,,0.00,weatherlink.com 1.10,2013-02-10 03:58:00,
2013-02-09 21:13:00,20.8,19.0,32.50,NNW,341,8.0,13.0,92,0.00,,,0.00,weatherlink.com 1.10,2013-02-10 04:13:00,
2013-02-09 21:28:00,20.8,19.0,32.50,NNW,328,11.0,14.0,92,0.00,,,0.00,weatherlink.com 1.10,2013-02-10 04:28:00,
2013-02-09 21:43:00,20.8,19.0,32.50,NW,313,6.0,13.0,92,0.00,,,0.00,weatherlink.com 1.10,2013-02-10 04:43:00,
2013-02-09 21:58:00,20.8,19.0,32.50,NW,321,4.0,12.0,92,0.00,,,0.00,weatherlink.com 1.10,2013-02-10 04:58:00,
2013-02-09 22:13:00,20.7,19.0,32.50,NNW,346,7.0,10.0,92,0.00,,,0.00,weatherlink.com 1.10,2013-02-10 05:13:00,
2013-02-09 22:28:00,20.6,19.0,32.50,WNW,303,6.0,12.0,92,0.00,,,0.00,weatherlink.com 1.10,2013-02-10 05:28:00,
2013-02-09 22:43:00,20.5,19.0,32.50,NW,317,5.0,10.0,92,0.00,,,0.00,weatherlink.com 1.10,2013-02-10 05:43:00,
2013-02-09 22:58:00,20.5,19.0,32.50,NW,321,5.0,9.0,92,0.00,,,0.00,weatherlink.com 1.10,2013-02-10 05:58:00,
2013-02-09 23:13:00,20.6,19.0,32.50,NW,325,5.0,10.0,92,0.00,,,0.00,weatherlink.com 1.10,2013-02-10 06:13:00,
2013-02-09 23:28:00,20.6,19.0,32.50,NW,323,6.0,11.0,92,0.00,,,0.00,weatherlink.com 1.10,2013-02-10 06:28:00,
2013-02-09 23:43:00,20.5,19.0,32.50,NW,324,5.0,7.0,92,0.00,,,0.00,weatherlink.com 1.10,2013-02-10 06:43:00,
2013-02-09 23:58:00,20.4,19.0,32.50,NW,319,4.0,8.0,92,0.00,,,0.00,weatherlink.com 1.10,2013-02-10 06:58:00,